Fremont, NE

3:26 AM CST on January 21, 2018 (GMT -0600)
Fremont Municipal

Weather History for KFET - January, 2012

Change the Weather History Date:

Friday, January 20, 2012

  Actual Average Record
Temperature  
Mean Temperature 16 °F -  
Max Temperature 23 °F 33 °F 57 °F (1964)
Min Temperature 10 °F 14 °F -18 °F (1962)
Degree Days  
Heating Degree Days 48    
Moisture  
Dew Point 0 °F    
Average Humidity 52    
Maximum Humidity 73    
Minimum Humidity 39    
Precipitation  
Precipitation 0.00 in - - ()
Sea Level Pressure  
Sea Level Pressure 29.99 in    
Wind  
Wind Speed 9 mph (NE)    
Max Wind Speed 16 mph    
Max Gust Speed 22 mph    
Visibility 10 miles    
Events      
Averages and records for this station are not official NWS values.
T = Trace of Precipitation, MM = Missing Value Source: NWS Daily Summary

Daily Weather History Graph

Daily Weather History Graph

Search for Another Location

Airport or City:

Trip Planner

Search our weather history database for the weather conditions in past years. The results will help you decide how hot, cold, wet, or windy it might be!

Date:

Astronomy

Jan. 20, 2012 Rise Set
Actual Time 7:47 AM CST 5:26 PM CST
Civil Twilight 7:17 AM CST 5:56 PM CST
Nautical Twilight 6:43 AM CST 6:30 PM CST
Astronomical Twilight 6:10 AM CST 7:03 PM CST
Moon 5:26 AM CST (1/20) 2:58 PM CST (1/20)
Length of Visible Light 10h 39m
Length of Day
9h 39m
Waning Crescent, 8% of the Moon is Illuminated
Jan 20
Waning Crescent
Jan 23
New
Jan 30
First Quarter
Feb 7
Full
Feb 14
Last Quarter

Hourly Weather History & Observations

Time (CST) Temp. Windchill Dew Point Humidity Pressure Visibility Wind Dir Wind Speed Gust Speed Precip Events Conditions
12:15 AM 10.9 °F -1.8 °F -5.4 °F 48% 30.04 in 10.0 mi SE 9.2 mph - N/A   Overcast
12:35 AM 10.9 °F -4.1 °F -5.3 °F 48% 30.02 in 10.0 mi ESE 12.7 mph - N/A   Overcast
12:55 AM 10.9 °F -1.8 °F -4.4 °F 50% 30.03 in 10.0 mi ESE 9.2 mph - N/A   Overcast
1:15 AM 11.3 °F -0.4 °F -4.5 °F 49% 30.04 in 10.0 mi ESE 8.1 mph - N/A   Overcast
1:35 AM 11.3 °F -2.2 °F -4.4 °F 49% 30.02 in 10.0 mi ESE 10.4 mph - N/A   Overcast
1:55 AM 11.1 °F -1.6 °F -4.4 °F 50% 30.00 in 10.0 mi ESE 9.2 mph - N/A   Overcast
2:15 AM 11.5 °F -1.1 °F -4.2 °F 50% 30.01 in 10.0 mi SE 9.2 mph - N/A   Overcast
2:55 AM 11.3 °F -1.3 °F -3.8 °F 51% 29.99 in 10.0 mi SE 9.2 mph - N/A   Mostly Cloudy
3:15 AM 11.7 °F -1.7 °F -3.3 °F 51% 29.96 in 10.0 mi East 10.4 mph - N/A   Mostly Cloudy
3:35 AM 11.3 °F -2.9 °F -3.6 °F 51% 29.94 in 10.0 mi ESE 11.5 mph - N/A   Overcast
3:55 AM 11.7 °F -3.2 °F -3.1 °F 52% 29.92 in 10.0 mi ESE 12.7 mph - N/A   Overcast
4:15 AM 11.7 °F -3.2 °F -2.4 °F 53% 29.91 in 10.0 mi East 12.7 mph - N/A   Overcast
4:35 AM 11.8 °F -4.8 °F -2.2 °F 53% 29.90 in 10.0 mi ESE 16.1 mph - N/A   Overcast
4:55 AM 12.2 °F 1.7 °F -2.2 °F 53% 29.93 in 10.0 mi ESE 6.9 mph - N/A   Overcast
5:15 AM 12.2 °F -0.2 °F -1.8 °F 53% 29.93 in 10.0 mi East 9.2 mph - N/A   Overcast
5:35 AM 12.2 °F 0.7 °F -2.0 °F 53% 29.92 in 10.0 mi East 8.1 mph - N/A   Overcast
5:55 AM 12.2 °F 1.7 °F -1.8 °F 53% 29.92 in 10.0 mi ESE 6.9 mph - N/A   Overcast
6:15 AM 12.4 °F 2.0 °F -1.7 °F 54% 29.90 in 10.0 mi ESE 6.9 mph - N/A   Overcast
6:35 AM 12.4 °F 0.0 °F -1.7 °F 54% 29.89 in 10.0 mi ESE 9.2 mph - N/A   Mostly Cloudy
6:55 AM 12.7 °F -1.1 °F -2.2 °F 51% 29.89 in 10.0 mi ESE 11.5 mph - N/A   Overcast
7:15 AM 12.7 °F 0.4 °F -1.8 °F 52% 29.89 in 10.0 mi SE 9.2 mph - N/A   Overcast
7:35 AM 13.1 °F - -1.7 °F 52% 29.92 in 10.0 mi Calm Calm - N/A   Overcast
7:55 AM 13.1 °F - -1.3 °F 53% 29.93 in 10.0 mi Calm Calm - N/A   Overcast
8:15 AM 13.1 °F - -0.9 °F 54% 29.94 in 10.0 mi Calm Calm - N/A   Overcast
8:35 AM 13.6 °F 7.7 °F -0.8 °F 53% 29.94 in 10.0 mi NE 3.5 mph - N/A   Overcast
8:55 AM 13.8 °F 4.9 °F -0.8 °F 52% 29.94 in 10.0 mi East 5.8 mph - N/A   Mostly Cloudy
9:15 AM 14.7 °F 9.0 °F -0.4 °F 51% 29.95 in 10.0 mi NE 3.5 mph - N/A   Scattered Clouds
9:35 AM 14.5 °F 4.6 °F -0.4 °F 52% 29.95 in 10.0 mi ESE 6.9 mph - N/A   Clear
9:55 AM 15.3 °F 9.6 °F -0.4 °F 50% 29.96 in 10.0 mi East 3.5 mph - N/A   Clear
10:15 AM 16.0 °F 8.8 °F 0.3 °F 50% 29.97 in 10.0 mi NE 4.6 mph - N/A   Clear
10:35 AM 17.2 °F 8.9 °F 0.7 °F 48% 29.96 in 10.0 mi NE 5.8 mph - N/A   Clear
10:55 AM 17.6 °F 8.2 °F 1.4 °F 49% 29.97 in 10.0 mi NNE 6.9 mph - N/A   Clear
11:15 AM 19.4 °F 14.3 °F 2.5 °F 48% 29.97 in 10.0 mi East 3.5 mph - N/A   Clear
11:35 AM 21.0 °F 12.4 °F 2.8 °F 45% 29.96 in 10.0 mi East 6.9 mph - N/A   Clear
11:55 AM 21.0 °F 14.6 °F 3.0 °F 46% 29.95 in 10.0 mi NE 4.6 mph - N/A   Clear
12:15 PM 21.0 °F 14.6 °F 2.8 °F 45% 29.95 in 10.0 mi NNE 4.6 mph - N/A   Clear
12:35 PM 22.5 °F 15.1 °F 2.8 °F 43% 29.94 in 10.0 mi ENE 5.8 mph - N/A   Clear
12:55 PM 22.8 °F 14.5 °F 2.5 °F 42% 29.93 in 10.0 mi NE 6.9 mph - N/A   Clear
1:15 PM 23.4 °F 16.2 °F 2.1 °F 40% 29.94 in 10.0 mi NE 5.8 mph - N/A   Clear
1:35 PM 23.4 °F 15.2 °F 1.9 °F 40% 29.94 in 10.0 mi NNE 6.9 mph - N/A   Clear
1:55 PM 23.7 °F 15.6 °F 1.8 °F 39% 29.94 in 10.0 mi NNE 6.9 mph - N/A   Clear
2:15 PM 23.7 °F 14.0 °F 1.8 °F 39% 29.95 in 10.0 mi North 9.2 mph 16.1 mph N/A   Clear
2:35 PM 23.5 °F 15.4 °F 1.8 °F 39% 29.97 in 10.0 mi North 6.9 mph - N/A   Clear
2:55 PM 23.9 °F 13.5 °F 2.3 °F 39% 29.98 in 10.0 mi NNW 10.4 mph 16.1 mph N/A   Clear
3:15 PM 23.5 °F 12.4 °F 4.1 °F 43% 30.00 in 10.0 mi North 11.5 mph 18.4 mph N/A   Clear
3:35 PM 22.6 °F 10.1 °F 4.8 °F 46% 30.01 in 10.0 mi North 13.8 mph 20.7 mph N/A   Clear
3:55 PM 21.2 °F 8.3 °F 4.8 °F 49% 30.03 in 10.0 mi North 13.8 mph 19.6 mph N/A   Clear
4:15 PM 20.3 °F 7.7 °F 5.0 °F 52% 30.04 in 10.0 mi NNW 12.7 mph 19.6 mph N/A   Clear
4:35 PM 18.9 °F 4.8 °F 4.6 °F 54% 30.06 in 10.0 mi NNW 15.0 mph 21.9 mph N/A   Scattered Clouds
5:15 PM 16.3 °F 4.1 °F 4.5 °F 60% 30.09 in 10.0 mi North 10.4 mph 17.3 mph N/A   Scattered Clouds
5:35 PM 15.8 °F 2.1 °F 4.1 °F 60% 30.09 in 10.0 mi North 12.7 mph 20.7 mph N/A   Mostly Cloudy
5:55 PM 15.3 °F 0.8 °F 4.3 °F 62% 30.11 in 10.0 mi North 13.8 mph 19.6 mph N/A   Overcast
6:15 PM 14.5 °F -0.2 °F 4.1 °F 63% 30.12 in 10.0 mi North 13.8 mph 19.6 mph N/A   Overcast
6:35 PM 14.0 °F 0.5 °F 3.9 °F 64% 30.13 in 10.0 mi North 11.5 mph 21.9 mph N/A   Overcast
6:55 PM 13.3 °F 1.1 °F 3.7 °F 66% 30.13 in 10.0 mi North 9.2 mph 18.4 mph N/A   Overcast
7:15 PM 12.4 °F -2.3 °F 3.6 °F 68% 30.15 in 10.0 mi NNW 12.7 mph - N/A   Mostly Cloudy
7:35 PM 11.8 °F -1.5 °F 3.4 °F 69% 30.16 in 10.0 mi NNW 10.4 mph - N/A   Scattered Clouds
7:55 PM 11.3 °F 0.7 °F 3.2 °F 70% 30.16 in 10.0 mi NNW 6.9 mph - N/A   Clear
8:15 PM 11.1 °F -1.6 °F 3.6 °F 72% 30.16 in 10.0 mi NNW 9.2 mph - N/A   Clear
8:35 PM 10.8 °F 0.0 °F 3.7 °F 73% 30.16 in 10.0 mi NNW 6.9 mph - N/A   Clear
8:55 PM 10.2 °F -0.6 °F 3.9 °F 76% 30.17 in 10.0 mi NNW 6.9 mph - N/A   Clear
9:15 PM 10.0 °F 0.4 °F 3.7 °F 76% 30.19 in 10.0 mi NNW 5.8 mph - N/A   Clear
9:35 PM 9.5 °F -0.3 °F 3.7 °F 77% 30.20 in 10.0 mi NNW 5.8 mph - N/A   Clear
9:55 PM 9.1 °F -0.7 °F 3.4 °F 77% 30.21 in 10.0 mi NNW 5.8 mph - N/A   Clear
10:15 PM 8.4 °F -0.1 °F 3.0 °F 79% 30.22 in 10.0 mi NNW 4.6 mph - N/A   Clear
10:35 PM 8.1 °F -0.5 °F 2.8 °F 79% 30.22 in 10.0 mi NNW 4.6 mph - N/A   Clear
10:55 PM 7.2 °F -1.5 °F 2.1 °F 80% 30.22 in 10.0 mi NW 4.6 mph - N/A   Clear
11:15 PM 6.3 °F -5.4 °F 2.3 °F 84% 30.22 in 10.0 mi NW 6.9 mph - N/A   Clear
11:35 PM 6.6 °F -0.3 °F 2.1 °F 82% 30.22 in 10.0 mi NNW 3.5 mph - N/A   Clear
11:55 PM 5.5 °F - 1.4 °F 83% 30.21 in 10.0 mi Calm Calm - N/A   Scattered Clouds